Location: Unspecified
(0.0000°N, 0.0000°E)
Time: 04:54:03
(UTC+00:00)

Tiros 1 despin weight - Pass Details

Date: 03 October 2020
Orbit: 594 x 641 km, 48.2° (Epoch: 28 October)

Event Time Altitude Azimuth Distance (km) Brightness Sun altitude
Rises 06:39:00 0° 216° (SW) 2,831 ? 12.5°
Reaches altitude 10° 06:41:18 10° 214° (SW) 1,924 ? 13.1°
Maximum altitude 06:45:42 74° 129° (SE) 617 ? 14.1°
Drops below altitude 10° 06:50:04 10° 44° (NE) 1,913 ? 15.2°
Sets 06:52:21 0° 42° (NE) 2,814 ? 15.8°
